Temp
-12 -12 -12 -12 -12 -12 -12 -12 -12 -11 -11 -11 -11 -11 -11 -11 -11 -11 -11 -11 -10 -10 -10 -10 -10 -10 -10 -10 -10 -10 -10 -10 -10 -10 -10 -11 -11 -11 -11 -11 -11 -11 -11 -11 -11 -11 -11
-12 -12 -12 -12 -12 -12 -11 -11 -11 -12 -12 -11 -11 -11 -11 -11 -11 -11 -11 -11 -11 -10 -10 -10 -10 -10 -10 -10 -10 -10 -10 -10 -10 -10 -11 -11 -11 -11 -11 -11 -11 -11 -11 -11 -11 -12 -12
-12 -12 -12 -12 -12 -12 -12 -12 -12 -12 -11 -11 -11 -11 -11 -11 -11 -11 -11 -11 -11 -11 -10 -10 -10 -10 -10 -10 -10 -10 -10 -10 -10 -10 -10 -11 -11 -11 -11 -11 -11 -11 -11 -11 -11 -12 -12
-12 -12 -12 -12 -12 -12 -12 -12 -12 -12 -12 -11 -11 -11 -11 -11 -11 -11 -11 -11 -11 -11 -10 -10 -10 -10 -10 -10 -10 -10 -10 -10 -10 -10 -10 -10 -10 -11 -11 -11 -11 -11 -11 -11 -11 -11 -11
-12 -12 -12 -12 -11 -11 -11 -11 -11 -11 -11 -11 -11 -11 -11 -11 -11 -11 -11 -11 -11 -11 -10 -10 -10 -10 -10 -10 -10 -10 -10 -10 -10 -10 -10 -10 -10 -11 -11 -11 -11 -11 -11 -11 -11 -11 -11
-12 -12 -12 -12 -11 -11 -11 -11 -11 -11 -11 -11 -11 -11 -11 -11 -11 -11 -12 -11 -11 -11 -11 -10 -10 -10 -10 -10 -10 -10 -10 -10 -10 -10 -10 -11 -11 -11 -11 -11 -11 -11 -11 -11 -11 -11 -11
-12 -12 -12 -12 -12 -11 -11 -11 -11 -12 -12 -12 -12 -11 -12 -12 -12 -12 -12 -12 -11 -11 -10 -10 -10 -10 -10 -10 -10 -10 -10 -10 -10 -10 -11 -11 -11 -11 -11 -11 -11 -11 -11 -12 -11 -11 -12
-12 -12 -12 -12 -11 -11 -11 -12 -12 -12 -12 -12 -12 -12 -12 -12 -12 -12 -12 -12 -11 -11 -11 -10 -10 -10 -10 -10 -10 -10 -10 -10 -11 -11 -11 -11 -11 -11 -11 -12 -12 -12 -12 -12 -12 -12 -12
-11 -11 -12 -12 -11 -11 -11 -11 -12 -12 -12 -12 -12 -12 -12 -12 -12 -12 -12 -11 -11 -10 -10 -10 -10 -10 -10 -10 -10 -10 -11 -11 -11 -11 -11 -11 -11 -11 -11 -12 -12 -12 -12 -13 -13 -13 -13
-11 -11 -11 -12 -12 -12 -12 -12 -12 -12 -12 -12 -12 -12 -12 -12 -12 -12 -12 -11 -10 -9 -9 -10 -10 -10 -10 -10 -10 -11 -11 -11 -11 -11 -11 -11 -12 -12 -12 -12 -12 -12 -13 -13 -13 -13 -13
-12 -12 -11 -11 -11 -12 -12 -12 -12 -12 -12 -12 -12 -12 -12 -12 -12 -11 -11 -11 -11 -10 -10 -10 -10 -10 -10 -11 -11 -11 -11 -11 -11 -12 -12 -12 -12 -12 -12 -12 -13 -13 -13 -13 -13 -13 -13
-12 -12 -12 -12 -12 -12 -12 -12 -11 -12 -12 -12 -12 -12 -12 -12 -12 -11 -11 -11 -11 -11 -11 -11 -11 -11 -11 -11 -11 -11 -11 -12 -12 -12 -12 -12 -12 -13 -13 -13 -13 -14 -14 -14 -14 -14 -13
-12 -12 -12 -12 -12 -12 -12 -11 -11 -11 -12 -12 -12 -12 -12 -12 -12 -12 -11 -11 -11 -12 -11 -11 -11 -11 -11 -11 -11 -11 -12 -12 -12 -12 -12 -12 -13 -13 -14 -14 -14 -14 -15 -15 -14 -15 -15
-12 -12 -12 -12 -12 -12 -12 -12 -12 -12 -12 -12 -12 -12 -12 -12 -12 -12 -12 -12 -12 -12 -12 -12 -12 -12 -12 -12 -12 -12 -12 -12 -12 -12 -12 -12 -13 -14 -14 -14 -15 -15 -16 -16 -16 -15 -15
-12 -12 -12 -12 -12 -13 -12 -12 -12 -12 -12 -12 -12 -12 -12 -12 -12 -12 -12 -12 -12 -13 -13 -13 -12 -12 -12 -13 -13 -12 -13 -13 -13 -14 -14 -13 -13 -14 -14 -15 -15 -15 -16 -17 -17 -16 -16
-12 -13 -13 -12 -12 -12 -12 -12 -12 -12 -13 -13 -13 -13 -13 -12 -12 -13 -12 -12 -13 -13 -12 -13 -13 -13 -13 -13 -13 -13 -13 -13 -14 -14 -15 -15 -14 -15 -15 -16 -16 -16 -16 -17 -17 -18 -17
-13 -13 -13 -13 -13 -12 -12 -12 -12 -12 -13 -13 -13 -13 -13 -13 -13 -13 -13 -13 -13 -13 -13 -13 -13 -13 -13 -13 -13 -13 -13 -13 -13 -14 -15 -15 -15 -15 -15 -16 -16 -17 -17 -18 -18 -18 -19
-13 -13 -13 -13 -13 -13 -13 -13 -13 -12 -13 -13 -12 -13 -13 -13 -13 -13 -13 -13 -13 -13 -13 -13 -13 -14 -14 -13 -13 -13 -13 -14 -14 -15 -15 -15 -15 -15 -15 -16 -17 -17 -18 -18 -19 -19 -19
-13 -14 -14 -13 -13 -13 -13 -13 -13 -13 -13 -13 -13 -13 -13 -13 -13 -14 -14 -13 -13 -13 -13 -13 -13 -13 -13 -13 -13 -13 -13 -14 -15 -15 -15 -15 -15 -16 -16 -16 -17 -18 -18 -19 -19 -19 -19
-13 -13 -14 -14 -14 -13 -13 -13 -13 -13 -13 -13 -13 -13 -13 -13 -13 -14 -14 -13 -14 -14 -14 -14 -14 -14 -14 -14 -14 -14 -14 -14 -15 -15 -16 -16 -16 -17 -18 -18 -18 -18 -19 -19 -19 -19 -19
-14 -14 -14 -14 -14 -14 -14 -14 -13 -13 -13 -13 -13 -13 -13 -13 -14 -14 -14 -13 -14 -14 -14 -14 -14 -14 -14 -14 -14 -15 -15 -15 -15 -16 -17 -17 -17 -18 -18 -19 -19 -19 -19 -19 -19 -20 -20
-15 -14 -14 -14 -14 -14 -14 -15 -15 -14 -14 -14 -14 -14 -13 -14 -14 -15 -15 -15 -15 -15 -14 -15 -15 -15 -15 -15 -15 -16 -16 -16 -16 -17 -17 -18 -18 -18 -18 -19 -19 -19 -19 -19 -20 -20 -20
-15 -15 -15 -16 -16 -15 -15 -14 -15 -15 -14 -14 -15 -15 -14 -14 -14 -15 -15 -15 -15 -15 -15 -15 -15 -15 -15 -16 -16 -16 -16 -17 -17 -17 -18 -19 -19 -20 -19 -19 -19 -19 -19 -19 -19 -20 -21
-15 -15 -15 -16 -17 -16 -16 -16 -15 -15 -15 -15 -16 -15 -15 -15 -15 -15 -15 -15 -15 -15 -15 -16 -15 -15 -16 -16 -16 -16 -17 -17 -18 -18 -19 -20 -20 -20 -19 -19 -19 -19 -19 -19 -20 -21 -23
-16 -16 -16 -16 -16 -17 -16 -17 -16 -16 -16 -16 -16 -16 -16 -15 -15 -15 -15 -15 -15 -16 -16 -16 -16 -17 -17 -17 -17 -17 -18 -18 -19 -19 -20 -20 -20 -19 -19 -19 -19 -19 -20 -21 -22 -22 -25
-17 -17 -16 -17 -17 -17 -17 -17 -17 -17 -17 -16 -16 -16 -16 -16 -15 -15 -16 -16 -16 -16 -16 -17 -17 -17 -17 -17 -18 -18 -19 -19 -19 -20 -20 -20 -20 -19 -20 -20 -20 -20 -21 -22 -23 -25 -26
-17 -18 -17 -17 -17 -17 -17 -18 -18 -18 -18 -17 -17 -17 -16 -16 -16 -17 -17 -16 -17 -17 -17 -17 -17 -17 -18 -18 -18 -19 -19 -21 -20 -20 -20 -20 -20 -20 -21 -21 -21 -22 -23 -23 -26 -27 -29
-18 -18 -18 -17 -18 -17 -18 -19 -18 -18 -18 -17 -17 -17 -17 -17 -17 -17 -17 -17 -17 -18 -17 -17 -18 -18 -18 -19 -20 -20 -20 -21 -21 -20 -20 -20 -20 -21 -21 -22 -22 -24 -25 -27 -28 -30 -31
-18 -18 -18 -18 -18 -18 -18 -18 -19 -19 -19 -18 -18 -18 -18 -17 -17 -18 -17 -18 -17 -18 -18 -18 -18 -18 -19 -20 -20 -21 -21 -20 -20 -20 -20 -21 -21 -21 -22 -23 -25 -26 -27 -29 -30 -31 -33
Height
5820 5821 5822 5823 5824 5825 5825 5825 5825 5825 5825 5825 5825 5825 5824 5823 5821 5820 5818 5817 5816 5816 5816 5816 5818 5820 5821 5822 5822 5821 5820 5819 5818 5817 5815 5813 5813 5812 5811 5811 5811 5810 5810 5809 5810 5810 5809
5818 5819 5821 5822 5823 5823 5824 5824 5824 5824 5824 5824 5824 5823 5822 5822 5820 5819 5817 5817 5816 5815 5816 5817 5819 5820 5820 5821 5819 5819 5818 5817 5816 5814 5812 5811 5810 5808 5807 5807 5807 5806 5806 5805 5805 5805 5805
5816 5817 5818 5819 5820 5821 5821 5822 5822 5822 5822 5821 5820 5820 5820 5819 5819 5818 5817 5817 5816 5815 5816 5817 5817 5818 5819 5819 5818 5817 5816 5815 5813 5811 5809 5807 5806 5805 5803 5803 5803 5803 5802 5802 5801 5801 5800
5813 5815 5816 5817 5817 5818 5818 5818 5819 5820 5819 5819 5818 5817 5817 5817 5816 5815 5815 5815 5815 5814 5814 5815 5816 5817 5817 5816 5816 5815 5814 5812 5810 5808 5806 5804 5803 5802 5802 5801 5799 5798 5798 5798 5798 5797 5796
5810 5812 5813 5814 5815 5815 5815 5816 5816 5816 5816 5816 5815 5814 5814 5814 5814 5813 5812 5812 5812 5812 5812 5813 5814 5814 5815 5814 5813 5812 5810 5809 5807 5805 5803 5802 5800 5799 5799 5797 5798 5796 5794 5791 5791 5791 5790
5808 5809 5810 5812 5812 5812 5812 5813 5813 5813 5813 5813 5812 5812 5812 5811 5811 5810 5810 5809 5808 5808 5809 5809 5810 5813 5812 5811 5810 5809 5807 5806 5803 5802 5800 5798 5796 5795 5794 5794 5794 5793 5792 5789 5788 5787 5784
5804 5805 5807 5808 5809 5809 5809 5810 5810 5810 5810 5810 5810 5809 5809 5808 5808 5807 5807 5806 5807 5806 5805 5806 5807 5808 5808 5807 5806 5805 5803 5801 5799 5798 5795 5794 5793 5791 5790 5789 5788 5787 5786 5784 5782 5782 5780
5802 5803 5803 5804 5805 5806 5806 5806 5806 5806 5807 5807 5807 5806 5806 5805 5804 5803 5802 5801 5801 5801 5802 5802 5803 5803 5803 5802 5801 5799 5798 5797 5795 5793 5791 5790 5788 5787 5785 5784 5783 5782 5780 5778 5775 5773 5771
5800 5800 5800 5801 5801 5802 5803 5803 5803 5803 5803 5803 5803 5803 5803 5802 5801 5800 5798 5798 5797 5797 5798 5798 5798 5798 5798 5797 5795 5794 5793 5791 5790 5788 5787 5785 5783 5781 5779 5777 5775 5774 5772 5769 5767 5764 5761
5796 5798 5798 5798 5798 5798 5799 5800 5800 5800 5799 5800 5800 5799 5799 5798 5798 5796 5794 5794 5792 5792 5793 5795 5794 5793 5793 5792 5791 5790 5788 5788 5785 5783 5781 5779 5777 5775 5772 5770 5768 5766 5763 5760 5758 5755 5751
5793 5793 5794 5795 5796 5795 5796 5796 5796 5796 5796 5796 5796 5795 5795 5794 5793 5792 5791 5789 5789 5788 5788 5788 5787 5787 5786 5787 5785 5784 5783 5780 5778 5776 5775 5773 5770 5767 5765 5762 5758 5756 5753 5750 5746 5743 5737
5789 5789 5790 5791 5791 5792 5792 5792 5792 5792 5791 5791 5791 5791 5791 5790 5789 5788 5787 5786 5785 5786 5782 5783 5782 5781 5781 5780 5779 5777 5776 5774 5771 5769 5767 5763 5761 5759 5756 5753 5749 5746 5743 5739 5734 5731 5724
5783 5785 5785 5786 5787 5787 5788 5788 5787 5787 5787 5787 5786 5786 5785 5785 5785 5784 5783 5783 5784 5781 5780 5779 5777 5776 5776 5774 5773 5770 5769 5767 5764 5761 5760 5756 5752 5749 5747 5743 5738 5735 5730 5726 5720 5716 5712
5775 5778 5780 5781 5781 5782 5783 5783 5782 5782 5782 5782 5782 5781 5780 5779 5779 5778 5777 5778 5777 5776 5774 5773 5772 5770 5769 5767 5765 5763 5761 5759 5756 5753 5748 5745 5741 5739 5736 5732 5728 5722 5719 5714 5702 5702 5699
5768 5770 5772 5774 5775 5776 5776 5777 5777 5777 5777 5776 5776 5776 5775 5774 5773 5772 5773 5772 5771 5770 5769 5767 5765 5763 5763 5761 5757 5755 5753 5749 5746 5743 5740 5733 5729 5727 5724 5720 5715 5711 5706 5699 5690 5686 5681
5760 5762 5763 5765 5767 5769 5770 5771 5771 5770 5770 5770 5770 5771 5770 5769 5767 5766 5766 5766 5763 5761 5760 5759 5758 5755 5753 5751 5747 5744 5740 5739 5735 5732 5727 5723 5717 5715 5712 5706 5703 5697 5691 5686 5678 5669 5664
5751 5753 5755 5756 5758 5760 5763 5764 5765 5764 5763 5763 5763 5763 5763 5762 5761 5760 5759 5758 5756 5755 5752 5750 5749 5746 5744 5741 5737 5734 5731 5728 5724 5721 5715 5711 5706 5704 5698 5693 5688 5683 5677 5671 5663 5655 5648
5742 5744 5745 5748 5749 5751 5753 5755 5756 5756 5756 5755 5756 5755 5756 5755 5754 5753 5752 5750 5749 5748 5745 5742 5740 5738 5736 5732 5728 5725 5722 5717 5712 5708 5703 5699 5691 5689 5686 5680 5674 5668 5662 5656 5648 5645 5637
5730 5734 5736 5738 5739 5741 5743 5745 5745 5746 5746 5746 5747 5747 5747 5746 5744 5744 5742 5741 5740 5740 5737 5734 5732 5729 5726 5722 5719 5715 5711 5707 5701 5695 5692 5686 5679 5675 5670 5667 5662 5655 5650 5644 5637 5630 5625
5717 5721 5725 5727 5728 5730 5732 5734 5735 5736 5736 5737 5737 5737 5739 5736 5735 5734 5733 5731 5731 5729 5726 5723 5721 5719 5715 5711 5707 5702 5698 5693 5688 5682 5678 5671 5666 5662 5657 5650 5646 5641 5636 5632 5625 5617 5609
5705 5709 5712 5715 5716 5719 5720 5721 5722 5725 5725 5726 5725 5726 5728 5725 5725 5723 5722 5720 5720 5717 5716 5712 5710 5707 5702 5698 5694 5689 5684 5679 5675 5669 5663 5656 5653 5648 5643 5638 5632 5629 5624 5616 5608 5601 5591
5692 5696 5699 5701 5704 5706 5709 5709 5711 5712 5714 5715 5715 5716 5715 5715 5715 5713 5711 5710 5707 5704 5702 5700 5697 5693 5689 5685 5680 5676 5671 5667 5662 5656 5649 5644 5639 5635 5631 5626 5620 5616 5610 5600 5591 5582 5571
5679 5685 5689 5692 5694 5694 5696 5698 5701 5702 5704 5704 5705 5704 5703 5704 5704 5703 5701 5698 5696 5694 5691 5687 5684 5681 5677 5673 5667 5663 5658 5653 5647 5643 5637 5632 5627 5622 5618 5614 5608 5602 5593 5583 5573 5561 5551
5665 5671 5677 5681 5684 5687 5686 5687 5690 5691 5693 5695 5695 5695 5695 5695 5695 5693 5691 5689 5685 5682 5679 5676 5672 5669 5665 5660 5655 5649 5644 5640 5634 5629 5625 5620 5615 5609 5605 5600 5593 5583 5575 5565 5554 5541 5529
5651 5657 5662 5667 5670 5674 5675 5677 5678 5681 5684 5685 5684 5686 5683 5683 5683 5681 5679 5676 5673 5670 5667 5665 5662 5657 5653 5648 5641 5636 5633 5627 5623 5619 5614 5609 5602 5594 5588 5583 5575 5566 5557 5547 5537 5526 5513
5637 5643 5647 5653 5657 5660 5664 5665 5666 5670 5672 5672 5672 5673 5674 5672 5671 5667 5665 5664 5661 5658 5656 5653 5649 5645 5640 5635 5629 5623 5618 5614 5610 5606 5603 5596 5589 5583 5573 5562 5555 5548 5538 5527 5515 5509 5498
5623 5629 5635 5640 5645 5648 5651 5652 5655 5657 5658 5660 5660 5661 5660 5658 5658 5655 5655 5655 5652 5648 5645 5641 5636 5633 5628 5623 5617 5613 5609 5604 5599 5595 5590 5583 5575 5567 5556 5545 5538 5528 5518 5507 5498 5492 5478
5608 5614 5621 5626 5631 5634 5638 5640 5642 5646 5647 5648 5649 5649 5648 5646 5648 5647 5644 5641 5639 5636 5632 5628 5625 5621 5615 5610 5606 5603 5599 5595 5589 5584 5577 5570 5562 5552 5541 5530 5521 5510 5501 5493 5483 5472 5465
5594 5598 5606 5614 5619 5620 5623 5626 5630 5634 5636 5638 5637 5637 5638 5638 5636 5633 5631 5629 5625 5623 5620 5616 5613 5608 5603 5598 5596 5593 5589 5585 5579 5571 5563 5556 5548 5537 5529 5517 5504 5493 5484 5474 5466 5460 5453
Wind_Speed
13 13 13 13 12 11 11 10 9 9 10 10 10 10 8 9 10 11 8 5 5 11 13 12 9 6 4 5 7 9 11 12 14 15 18 19 19 17 16 15 14 14 15 15 15 14 15
14 13 13 12 12 13 13 12 12 12 12 12 13 11 9 9 10 11 10 8 8 14 14 11 9 8 7 7 8 10 13 15 18 21 22 19 18 17 16 16 17 17 17 18 18 16 18
13 13 12 12 13 13 14 14 14 13 13 12 12 11 9 10 11 13 13 11 9 14 14 13 12 12 10 10 10 13 15 17 20 21 19 18 18 17 16 16 16 16 17 16 16 17 19
18 17 16 15 15 15 15 15 15 14 13 13 13 13 12 11 11 11 12 12 13 15 17 16 15 15 13 13 14 17 18 20 19 21 19 18 18 18 18 16 14 14 14 17 18 19 21
17 18 17 16 15 14 14 14 13 13 12 13 14 14 12 11 13 14 14 15 16 18 21 20 19 17 15 16 17 19 19 19 21 21 21 19 17 18 18 16 15 14 15 19 21 23 24
16 17 18 19 18 17 16 15 14 14 13 13 12 11 12 14 15 16 17 18 18 19 21 24 22 20 18 19 19 21 22 21 23 23 23 20 19 20 19 17 18 19 20 25 25 26 28
16 16 16 16 17 17 16 16 14 14 14 14 14 14 14 16 17 19 20 19 18 19 22 24 24 22 22 21 21 23 23 24 24 23 21 21 20 20 22 23 24 24 25 27 31 32 33
15 16 17 16 17 16 17 16 15 15 15 15 15 15 17 19 20 21 20 19 17 18 20 23 24 25 25 23 24 25 24 24 25 23 22 22 23 25 26 28 30 31 33 34 35 36 39
14 16 17 17 18 19 19 18 17 17 17 17 17 18 19 19 20 20 19 19 18 18 20 21 23 26 26 26 26 26 25 26 26 25 24 24 25 27 30 32 35 37 38 39 41 42 43
16 16 17 19 20 20 20 20 20 19 18 19 19 19 20 20 19 20 20 20 19 21 20 23 25 27 28 28 27 28 28 28 27 28 27 27 28 30 33 37 40 42 43 45 47 48 51
20 19 18 18 18 18 18 18 19 19 18 18 19 19 19 19 19 19 20 20 20 20 22 23 24 25 27 28 28 29 30 30 30 30 31 32 34 34 35 38 41 44 46 48 51 52 56
25 23 22 21 20 19 17 16 16 18 18 18 19 19 20 20 21 20 20 19 20 20 22 21 22 24 26 29 29 29 29 31 33 34 35 37 38 38 39 40 42 43 46 48 52 54 59
27 28 27 25 24 21 21 19 18 18 19 19 19 20 21 22 21 21 20 20 20 22 23 21 21 22 24 26 27 28 29 31 34 37 37 40 41 42 42 44 46 46 49 51 56 59 61
27 29 30 30 27 26 24 23 22 21 22 23 23 21 22 22 23 22 22 22 24 23 25 25 24 22 22 25 26 29 31 33 36 39 44 45 48 47 46 46 48 50 51 52 58 59 60
30 30 31 32 32 30 28 26 25 26 26 26 26 25 25 24 24 25 25 24 24 24 26 27 27 28 27 29 34 35 37 38 39 41 46 50 51 50 50 51 52 53 53 56 59 61 62
41 36 34 34 33 33 30 29 29 30 29 29 29 28 27 29 28 27 27 26 27 28 31 33 32 35 35 35 38 39 42 43 45 46 47 49 52 51 51 53 53 55 57 58 60 62 63
42 40 36 38 36 35 34 33 35 35 34 34 34 32 30 32 33 32 31 31 31 32 34 36 37 39 39 40 42 43 46 48 50 51 51 51 55 55 54 54 55 56 56 54 56 59 60
46 43 42 40 41 39 35 34 37 40 41 42 39 37 35 36 36 35 35 36 37 37 38 40 41 41 42 45 47 48 51 52 51 51 53 55 58 57 58 59 58 56 55 53 54 55 59
50 47 44 42 38 40 40 38 42 42 43 45 44 41 41 40 41 39 41 43 43 42 40 42 44 43 45 48 52 54 55 54 52 53 57 56 59 60 61 58 55 54 51 52 54 58 63
56 55 52 51 47 48 46 47 45 45 46 47 47 46 43 46 47 45 44 44 43 44 45 46 48 49 50 52 54 56 57 56 56 56 58 58 59 56 56 54 53 51 51 54 60 65 68
62 60 56 54 56 52 51 50 49 49 49 50 48 48 45 47 45 45 47 48 45 48 52 53 51 52 55 56 57 57 57 57 57 58 57 57 57 54 51 50 50 51 55 61 66 69 74
54 60 61 59 58 59 54 51 50 49 49 51 49 48 47 46 46 43 44 46 47 49 52 53 53 55 56 57 57 56 57 57 57 55 55 55 55 51 50 48 52 57 60 65 71 77 78
56 56 57 56 55 54 52 54 54 54 55 56 50 43 44 46 46 46 45 48 51 53 55 56 56 56 55 54 53 53 54 55 55 55 55 51 47 47 49 53 58 60 67 72 74 78 80
59 57 57 60 57 52 50 51 53 54 51 45 43 39 39 40 44 45 44 47 49 51 52 53 51 53 46 44 48 50 51 52 53 51 48 45 46 52 55 58 62 68 71 74 77 78 78
55 54 57 60 61 60 53 50 52 51 49 44 49 48 52 52 49 52 56 54 50 48 49 51 48 38 42 48 51 51 50 50 46 45 43 45 52 57 60 63 67 71 74 75 75 75 72
54 53 54 52 52 58 56 50 48 48 49 49 51 53 50 43 46 47 47 48 46 44 38 35 46 43 48 50 52 50 47 45 44 45 45 50 56 60 65 68 72 74 74 74 76 70 68
58 50 51 51 51 52 49 53 54 52 44 44 43 44 46 47 44 41 36 34 35 39 45 48 44 46 50 53 52 49 46 41 42 45 50 55 60 63 67 71 73 73 74 75 70 70 64
51 48 48 49 52 54 49 51 52 52 51 53 49 39 39 37 34 34 40 49 54 51 47 47 45 49 50 49 47 44 41 41 45 49 54 58 62 65 69 71 73 72 71 68 65 61 57
44 44 48 50 52 54 53 53 51 52 54 51 44 47 49 45 43 48 54 53 53 47 48 50 50 53 49 43 40 40 40 45 50 54 57 61 64 67 68 69 68 68 66 64 61 56 50
Wind_Direction
224 227 234 240 249 259 265 268 272 275 277 283 291 292 306 321 327 329 321 308 208 183 187 198 202 213 252 277 312 329 325 324 322 315 314 311 301 295 291 288 284 281 281 283 281 281 279
231 234 243 251 260 267 272 277 279 280 285 288 288 288 300 308 317 321 310 300 230 208 214 216 224 233 251 278 308 312 315 318 318 314 311 308 303 296 288 280 280 280 280 280 280 278 275
233 236 244 253 258 264 270 273 276 278 277 280 289 295 285 289 309 316 317 302 276 234 230 233 236 245 257 278 292 303 308 311 316 317 315 309 299 288 278 280 280 282 282 280 279 277 276
234 238 245 251 258 262 265 269 274 279 284 290 295 298 295 280 285 296 302 296 287 255 240 239 243 252 260 276 288 299 305 313 313 316 315 309 302 292 286 279 267 266 274 280 281 281 282
238 239 243 252 262 264 267 270 274 278 282 290 292 294 295 291 290 292 293 286 279 272 249 243 248 254 264 277 285 298 301 308 312 314 310 302 295 293 284 273 266 262 263 270 273 275 277
233 237 242 246 250 254 259 261 264 269 276 282 288 292 291 291 290 290 289 285 279 269 262 249 250 256 265 275 287 296 298 304 312 313 304 296 289 286 280 275 272 274 279 281 279 277 276
229 235 239 244 248 251 255 256 260 268 275 280 286 286 287 288 289 290 288 286 279 268 265 255 251 258 267 277 284 293 297 303 309 311 304 294 289 283 278 276 273 273 276 280 282 283 280
242 238 237 243 245 249 253 256 260 264 273 276 276 280 285 287 290 290 289 285 280 269 266 261 257 260 265 275 283 288 293 299 304 305 305 296 290 287 281 281 281 280 281 282 281 281 281
248 247 245 244 247 252 253 257 260 262 268 273 278 281 283 287 288 290 293 290 284 276 269 262 260 263 270 275 280 285 291 296 298 300 301 298 292 288 286 283 282 283 283 282 282 281 281
254 253 256 250 248 249 253 258 261 264 269 276 279 281 285 286 290 293 294 291 282 276 268 265 267 268 272 276 281 286 289 294 294 296 295 295 292 291 289 287 286 285 286 286 286 286 286
253 257 257 259 261 257 258 260 265 268 272 275 279 285 291 294 296 296 298 299 291 276 274 267 265 267 270 274 279 285 291 292 292 294 295 293 291 289 290 290 288 287 287 287 286 286 285
260 257 259 263 263 267 267 269 275 280 282 283 283 286 290 293 296 299 299 305 304 293 284 278 276 273 277 281 284 287 289 291 294 295 295 293 292 291 289 290 289 288 287 287 286 286 284
254 261 262 261 263 263 267 268 270 276 280 281 283 287 291 294 293 295 296 302 306 302 296 291 288 288 289 288 289 290 292 295 297 298 297 296 295 293 292 291 290 290 289 289 286 286 286
257 258 259 262 260 261 263 267 272 275 279 285 287 286 289 293 295 295 294 296 305 301 294 293 293 291 291 291 291 293 297 297 297 298 297 297 296 295 294 291 290 289 289 288 285 287 288
258 262 260 258 260 259 260 264 269 276 283 285 286 287 287 289 292 291 293 294 300 296 297 295 294 293 294 295 296 297 296 294 295 295 297 297 296 296 296 294 292 292 290 288 288 289 288
257 258 261 256 258 262 261 265 267 274 278 280 284 285 284 285 285 288 289 292 292 289 292 292 291 290 293 293 294 295 296 300 299 298 297 297 295 296 295 293 293 293 292 292 290 290 290
251 252 259 258 255 256 259 267 273 274 279 282 283 282 283 282 284 286 288 287 287 288 291 294 292 290 293 296 297 299 301 302 302 301 300 298 296 297 296 295 295 294 293 292 290 290 292
249 251 256 256 255 254 253 265 276 278 276 277 283 281 278 279 281 285 286 286 286 290 293 292 291 291 293 295 298 300 302 301 299 298 297 297 297 298 298 297 297 295 295 293 293 295 294
247 249 252 253 253 250 252 267 274 276 275 278 276 280 280 283 283 283 283 285 286 289 289 290 292 292 291 292 294 298 301 299 297 297 298 297 297 298 296 296 296 295 296 295 295 295 297
243 245 243 251 256 262 262 266 269 270 274 276 277 278 279 281 283 283 284 285 286 284 284 287 290 290 291 292 293 295 297 295 295 296 295 296 297 297 296 295 294 295 296 298 296 296 296
246 247 245 245 251 254 262 264 269 268 273 276 277 275 279 281 281 281 282 284 284 284 286 288 289 289 289 289 292 294 292 292 295 296 296 296 295 294 293 293 294 298 299 297 297 297 298
253 256 257 251 252 253 252 254 266 266 272 275 277 279 278 279 284 284 283 283 284 285 285 286 288 288 288 290 291 291 292 293 294 293 292 293 293 291 290 296 299 299 300 299 299 299 299
253 257 260 260 260 258 259 258 260 265 267 267 277 278 279 279 283 284 286 286 286 285 285 287 288 289 289 292 292 293 293 293 293 293 293 291 292 298 300 301 301 300 299 301 301 300 300
251 252 254 257 258 258 260 262 265 268 272 277 277 280 269 275 282 283 286 288 288 289 287 286 285 286 290 300 298 294 293 292 292 292 291 296 300 300 302 301 299 301 302 302 302 301 300
247 247 251 254 258 260 257 260 264 263 271 261 273 268 272 285 286 281 280 286 283 283 282 282 283 286 295 302 300 294 293 293 292 291 297 300 299 299 299 300 302 302 302 303 302 301 302
252 248 250 253 255 257 258 260 261 262 268 264 272 276 281 284 279 277 276 280 281 280 282 292 300 297 297 299 297 295 291 292 293 296 301 301 299 300 301 302 302 304 304 304 302 302 301
252 250 248 249 252 253 256 255 259 263 260 272 272 275 277 279 275 277 276 283 286 290 295 299 294 298 298 296 293 290 289 292 296 299 300 299 299 302 303 304 304 305 306 305 304 304 301
251 250 248 245 243 251 250 250 256 256 264 263 269 270 278 271 260 269 282 298 303 299 299 290 289 295 295 293 291 291 292 296 299 298 299 302 302 304 305 305 305 306 303 302 302 302 304
244 241 245 245 242 246 247 250 253 257 259 264 252 268 269 264 273 282 287 299 296 299 293 290 292 298 294 288 287 291 301 303 300 301 302 303 305 306 306 304 304 304 302 302 302 302 304